[[{"header":{"parameterUnit":"m.s-1","parameterCategory":2,"la1":30.2991,"la2":30.254,"lo1":-89.0895,"lo2":-89.0444,"dy":0.0017,"dx":0.0017,"nx":28,"ny":28,"refTime":"2023-09-24T21:00:00:Z","depth":"0","parameterNumber":2,"parameterNumberName":"U-component_of_CURRENTS"},"data":[0,0,0,0,0,0,0,0,0,0,0,0,0,0,0,0,0,0,0,0,0,0,0,0,0,0,0,0,0,0,0,0,0,0,0,0,0,0,0,0,0,0,0,0,0,0,0,0,0,0,0,0,0,0,0,0,0,0,-0.2837,-0.2838,0,-0.288,-0.288,-0.288,-0.2775,-0.2773,-0.277,-0.2767,-0.2673,-0.2673,-0.2673,0,0,0,0,0,0,0,0,0,0,0,0,0,-0.2644,-0.2648,-0.2837,-0.2838,-0.2839,-0.288,-0.288,-0.288,-0.2776,-0.2772,-0.2769,-0.2766,-0.2673,-0.2673,-0.2673,0,0,0,0,0,0,0,0,0,0,0,0,0,-0.2706,-0.2649,-0.2837,-0.2797,-0.2794,-0.288,-0.288,-0.288,-0.2777,-0.2772,-0.2768,-0.2764,-0.2673,-0.2673,-0.2673,-0.2756,0,0,-0.2673,-0.2673,0,0,0,0,0,0,0,0,-0.2702,-0.2712,-0.2802,-0.28,-0.2797,-0.2823,-0.2777,-0.2833,-0.2778,-0.2777,-0.2767,-0.2762,-0.2718,-0.2714,-0.2724,-0.2751,-0.2747,-0.2673,-0.2673,-0.2673,-0.2673,0,0,0,0,0,0,0,-0.2698,-0.271,-0.2848,-0.2803,-0.28,-0.277,-0.2773,-0.2787,-0.2762,-0.2777,-0.2771,-0.2786,-0.2714,-0.2725,-0.2721,-0.2746,-0.2673,-0.2673,-0.2673,-0.2673,-0.2799,-0.2803,0,0,0,0,0,0,-0.2712,-0.2707,-0.2846,-0.285,-0.2745,-0.2777,-0.2781,-0.2814,-0.2765,-0.2757,-0.279,-0.2781,-0.2726,-0.2721,-0.2717,-0.2808,-0.2673,-0.2673,-0.2673,-0.2796,-0.28,-0.2804,0,0,0,0,0,0,-0.2708,-0.2725,-0.2845,-0.2782,-0.2795,-0.2785,-0.2823,-0.2817,-0.2823,-0.2778,-0.2764,-0.2801,-0.2723,-0.2717,-0.274,-0.2803,-0.2673,-0.2673,-0.2792,-0.2797,-0.2802,-0.2992,0,0,0,0,0,0,-0.2703,-0.2724,-0.275,-0.2784,-0.28,-0.2918,-0.2828,-0.2821,-0.2842,-0.2831,-0.2785,-0.2771,-0.2719,-0.2741,-0.274,-0.2801,-0.2674,-0.2788,-0.2794,-0.28,-0.2982,-0.3003,-0.3021,0,0,0,0,0,-0.2696,-0.2778,-0.2752,-0.2769,-0.2839,-0.2922,-0.2928,-0.29,-0.2847,-0.2882,-0.2839,-0.2772,-0.2778,-0.2745,-0.2743,-0.2805,-0.2785,-0.2793,-0.28,-0.2973,-0.2999,-0.3021,0,0,0,0,0,0,-0.2709,-0.2777,-0.2748,-0.2843,-0.2879,-0.2906,-0.2946,-0.2922,-0.292,-0.2895,-0.2825,-0.2814,-0.2853,-0.2814,-0.2777,-0.2859,-0.2768,-0.2776,-0.29,-0.2924,-0.2944,-0.2908,-0.2674,0,0,0,0,0,-0.2727,-0.2803,-0.2842,-0.2915,-0.2939,-0.2939,-0.2965,-0.295,-0.2957,-0.295,-0.292,-0.2889,-0.2892,-0.2892,-0.2883,-0.2945,-0.2863,-0.298,-0.3,-0.3017,-0.2988,-0.2968,-0.2982,-0.2828,-0.2828,-0.2828,0,0,-0.2752,-0.28,-0.2839,-0.2922,-0.2941,-0.2978,-0.2944,-0.3006,-0.3036,-0.2945,-0.2979,-0.2961,-0.2923,-0.2977,-0.2992,-0.2948,-0.3019,-0.3027,-0.3041,-0.3002,-0.2977,-0.2991,-0.3004,-0.2833,-0.2832,-0.2831,0,0,-0.2827,-0.2883,-0.2943,-0.2976,-0.3025,-0.304,-0.3062,-0.3097,-0.3117,-0.3168,-0.3101,-0.3129,-0.3132,-0.3127,-0.312,-0.3252,-0.3123,-0.3246,-0.3323,-0.3307,-0.3318,-0.3327,-0.3238,-0.3238,-0.3259,-0.326,-0.326,0,-0.2837,-0.2894,-0.2976,-0.3016,-0.3017,-0.3065,-0.3076,-0.3153,-0.3187,-0.32,-0.3195,-0.3198,-0.3205,-0.3236,-0.3293,-0.3298,-0.3222,-0.324,-0.333,-0.3337,-0.3343,-0.325,-0.3247,-0.327,-0.3269,-0.3268,-0.3267,0,-0.2921,-0.2943,-0.2993,-0.3037,-0.308,-0.3117,-0.3195,-0.3259,-0.3283,-0.3313,-0.337,-0.3395,-0.3368,-0.3421,-0.3406,-0.3458,-0.3367,-0.3357,-0.3266,-0.337,-0.3265,-0.3259,-0.3284,-0.3281,-0.3278,-0.3275,0,0,-0.2934,-0.3024,-0.3019,-0.2991,-0.3064,-0.3101,-0.3205,-0.3273,-0.3284,-0.3403,-0.3383,-0.3523,-0.3511,-0.3502,-0.3504,-0.3535,-0.3566,-0.3474,-0.3469,-0.3375,-0.3454,-0.3148,-0.311,-0.356,-0.356,-0.356,-0.3361,0,-0.2917,-0.2961,-0.3019,-0.3015,-0.3005,-0.3078,-0.3148,-0.3235,-0.3301,-0.3326,-0.3437,-0.3436,-0.3555,-0.3517,-0.3593,-0.3537,-0.3555,-0.3615,-0.3372,-0.3363,-0.3072,-0.3096,-0.2973,-0.2763,-0.3354,-0.3352,-0.3351,0,-0.2876,-0.2919,-0.2908,-0.2917,-0.2923,-0.2951,-0.2986,-0.3064,-0.3175,-0.3218,-0.329,-0.3325,-0.3415,-0.3471,-0.351,-0.3527,-0.3509,-0.3496,-0.3487,-0.3116,-0.3044,-0.2755,-0.2726,-0.275,-0.3339,-0.334,-0.3341,0,-0.2718,-0.2782,-0.2757,-0.2764,-0.2844,-0.2855,-0.2905,-0.3005,-0.3044,-0.3117,-0.3088,-0.3217,-0.3199,-0.3278,-0.3313,-0.3395,-0.3261,-0.3362,-0.3071,-0.3047,-0.2844,-0.2798,-0.279,-0.3362,-0.3363,-0.3363,-0.3364,0,-0.2583,-0.2546,-0.2687,-0.2664,-0.2652,-0.2736,-0.2721,-0.2803,-0.2854,-0.2841,-0.3004,-0.2958,-0.3149,-0.3116,-0.3205,-0.3057,-0.3182,-0.3038,-0.297,-0.2902,-0.2867,-0.2792,-0.2849,-0.3356,-0.3357,-0.3359,-0.336,0,-0.2333,-0.2431,-0.2406,-0.2518,-0.2555,-0.2536,-0.2614,-0.2616,-0.268,-0.2636,-0.2644,-0.2732,-0.2673,-0.277,-0.2789,-0.2822,-0.2689,-0.268,-0.2536,-0.2452,-0.2206,-0.2276,-0.2069,-0.2022,-0.2345,-0.2336,-0.2329,0,-0.2188,-0.2155,-0.2278,-0.23,-0.234,-0.237,-0.2398,-0.2512,-0.2515,-0.2484,-0.2436,-0.235,-0.2262,-0.213,-0.2154,-0.2115,-0.2283,-0.1971,-0.2137,-0.2113,-0.2149,-0.2234,-0.2223,-0.1968,-0.1958,-0.195,-0.1943,0,-0.1908,-0.1966,-0.199,-0.2056,-0.2096,-0.2142,-0.2189,-0.2162,-0.2251,-0.2179,-0.2018,-0.1907,-0.1751,-0.1619,-0.153,-0.156,-0.1899,-0.1792,-0.1863,-0.1884,-0.1887,-0.1833,-0.2147,-0.1872,-0.1879,-0.1884,-0.1888,-0.1891,-0.1691,-0.1668,-0.174,-0.1778,-0.1834,-0.186,-0.1825,-0.1859,-0.1777,-0.1616,-0.161,-0.1341,-0.1293,-0.113,-0.1128,-0.1102,-0.128,-0.1205,-0.1298,-0.1391,-0.132,-0.1384,-0.0967,-0.0969,-0.0971,-0.0972,-0.0973,0,-0.1441,-0.1468,-0.1473,-0.153,-0.1505,-0.163,-0.1644,-0.1565,-0.1389,-0.1251,-0.1048,-0.0775,-0.0683,-0.0724,-0.0742,-0.0717,-0.0842,-0.0757,-0.0992,-0.1016,-0.1147,-0.1106,-0.0582,-0.0582,-0.0582,-0.0583,-0.0583,-0.0583,-0.1318,-0.1264,-0.1294,-0.1195,-0.1227,-0.1163,-0.1133,-0.1028,-0.0916,-0.0581,-0.036,-0.0246,-0.0369,-0.0577,-0.0655,-0.0638,-0.0768,-0.064,-0.0752,-0.1011,-0.1068,-0.1123,-0.1102,-0.0587,-0.0587,-0.0622,-0.0623,-0.0623]},{"header":{"parameterUnit":"m.s-1","parameterCategory":2,"la1":30.2991,"la2":30.254,"lo1":-89.0895,"lo2":-89.0444,"dy":0.0017,"dx":0.0017,"nx":28,"ny":28,"refTime":"2023-09-24T21:00:00:Z","depth":"0","parameterNumber":3,"parameterNumberName":"V-component_of_CURRENTS"},"data":[0,0,0,0,0,0,0,0,0,0,0,0,0,0,0,0,0,0,0,0,0,0,0,0,0,0,0,0,0,0,0,0,0,0,0,0,0,0,0,0,0,0,0,0,0,0,0,0,0,0,0,0,0,0,0,0,0,0,-0.0115,-0.0113,0,0.0027,0.0028,0.003,0.0121,0.0121,0.0122,0.0122,0.0277,0.0281,0.0284,0,0,0,0,0,0,0,0,0,0,0,0,0,-0.0273,-0.0271,-0.0115,-0.0113,-0.0112,0.0027,0.0029,0.003,0.012,0.0121,0.0122,0.0122,0.0276,0.028,0.0285,0,0,0,0,0,0,0,0,0,0,0,0,0,-0.0176,-0.027,-0.0115,-0.005,-0.0043,0.0026,0.0029,0.0031,0.012,0.0121,0.0122,0.0123,0.0275,0.028,0.0285,0.0302,0,0,0.0302,0.0304,0,0,0,0,0,0,0,0,-0.0181,-0.017,-0.0061,-0.0054,-0.0046,0.0057,0.003,0.0123,0.012,0.0058,0.0122,0.0123,0.0204,0.0216,0.024,0.031,0.0316,0.0302,0.0306,0.0308,0.031,0,0,0,0,0,0,0,-0.0188,-0.0175,-0.0059,-0.006,-0.005,-0.0016,-0.0001,0.0048,0.0125,0.0064,0.0071,0.0086,0.0209,0.0235,0.0244,0.0319,0.0302,0.0307,0.031,0.0313,0.0445,0.0445,0,0,0,0,0,0,-0.0208,-0.0182,-0.0063,-0.0055,-0.0113,-0.0014,0.0003,0.0023,0.0125,0.0141,0.0086,0.009,0.0225,0.0238,0.025,0.0295,0.0308,0.0313,0.0316,0.0444,0.0445,0.0445,0,0,0,0,0,0,-0.0212,-0.0199,-0.0069,-0.0115,-0.0096,-0.0012,0.001,0.0025,0.0053,0.0141,0.0158,0.0098,0.0226,0.0243,0.0299,0.0301,0.0316,0.032,0.0444,0.0444,0.0445,0.0373,0,0,0,0,0,0,-0.0217,-0.0201,-0.0198,-0.0117,-0.0095,-0.0035,0.001,0.0028,0.0062,0.0069,0.0157,0.0172,0.0228,0.029,0.0304,0.0309,0.0325,0.0444,0.0444,0.0445,0.0375,0.0371,0.0367,0,0,0,0,0,-0.0223,-0.0231,-0.0199,-0.0185,-0.0092,-0.0035,-0.0021,0.0042,0.0061,0.007,0.0133,0.017,0.0303,0.0295,0.0311,0.0317,0.0443,0.0444,0.0445,0.0377,0.0372,0.0367,0,0,0,0,0,0,-0.0287,-0.022,-0.0184,-0.0166,-0.0105,-0.002,-0.0009,0.0032,0.0089,0.0093,0.0174,0.0194,0.0249,0.0288,0.0277,0.0357,0.0379,0.0383,0.0322,0.0318,0.0314,0.0285,0.0329,0,0,0,0,0,-0.0303,-0.0295,-0.0213,-0.0196,-0.0172,-0.0093,-0.0064,-0.0022,0.0042,0.0067,0.0134,0.02,0.0263,0.0292,0.0356,0.039,0.0419,0.0406,0.0402,0.0398,0.0387,0.0417,0.0414,0.0447,0.0447,0.0447,0,0,-0.0321,-0.0284,-0.0276,-0.021,-0.016,-0.0129,-0.0074,-0.0038,-0.0006,0.0074,0.0129,0.0192,0.0272,0.0324,0.035,0.0355,0.0408,0.0399,0.0395,0.0386,0.0417,0.0414,0.0411,0.0447,0.0447,0.0447,0,0,-0.0356,-0.032,-0.0324,-0.0282,-0.0219,-0.0168,-0.0163,-0.0079,-0.0038,0.0022,0.0091,0.0148,0.0244,0.0301,0.0341,0.0349,0.0391,0.037,0.0321,0.035,0.0347,0.0345,0.0387,0.0389,0.036,0.036,0.036,0,-0.0384,-0.0371,-0.0314,-0.0301,-0.0286,-0.0191,-0.0192,-0.0125,-0.0031,-0.0013,0.003,0.0161,0.0235,0.0288,0.0303,0.0339,0.0362,0.033,0.0342,0.0341,0.0339,0.0383,0.0386,0.0356,0.0357,0.0357,0.0357,0,-0.0411,-0.0403,-0.0403,-0.0358,-0.0331,-0.0321,-0.0231,-0.0191,-0.0133,-0.007,-0.0001,0.0105,0.017,0.0214,0.027,0.0296,0.0319,0.0337,0.0346,0.0331,0.0379,0.0383,0.0351,0.0353,0.0354,0.0354,0,0,-0.0479,-0.0437,-0.0439,-0.0446,-0.0376,-0.0363,-0.0314,-0.026,-0.0245,-0.0132,-0.0114,0.0021,0.0067,0.0115,0.019,0.023,0.0264,0.0273,0.0276,0.03,0.0331,0.0343,0.035,0.0275,0.0275,0.0275,0.0371,0,-0.0524,-0.0542,-0.0505,-0.0523,-0.053,-0.0458,-0.0429,-0.0365,-0.029,-0.0237,-0.0122,-0.0064,0.0035,0.0057,0.0117,0.0226,0.027,0.0236,0.0354,0.0358,0.0358,0.0353,0.0382,0.0468,0.0375,0.0376,0.0377,0,-0.0562,-0.0582,-0.0617,-0.0632,-0.0632,-0.0621,-0.0601,-0.056,-0.0453,-0.0402,-0.032,-0.0219,-0.012,-0.0044,0.0125,0.0094,0.0202,0.0292,0.0297,0.0332,0.0377,0.0469,0.048,0.0581,0.0384,0.0383,0.0383,0,-0.0648,-0.0665,-0.0713,-0.0711,-0.0695,-0.0709,-0.0696,-0.0616,-0.0592,-0.0508,-0.0481,-0.0351,-0.0268,-0.0138,0.0085,0.0089,0.0269,0.0293,0.0408,0.0411,0.0471,0.0478,0.058,0.0392,0.0392,0.0392,0.0392,0,-0.0711,-0.0749,-0.0759,-0.0784,-0.085,-0.0809,-0.0843,-0.0801,-0.0739,-0.0684,-0.0578,-0.0487,-0.0287,-0.0133,0.0034,0.0242,0.023,0.0396,0.043,0.0449,0.0453,0.0572,0.0609,0.0396,0.0395,0.0394,0.0393,0,-0.0759,-0.0769,-0.0829,-0.0864,-0.088,-0.0921,-0.093,-0.0928,-0.0879,-0.0802,-0.0779,-0.059,-0.0387,-0.0188,0.0056,0.0189,0.0434,0.0445,0.0461,0.0494,0.0659,0.069,0.0796,0.0869,0.0558,0.0558,0.0559,0,-0.0772,-0.0805,-0.0888,-0.0929,-0.0943,-0.0997,-0.1011,-0.0992,-0.0953,-0.0814,-0.0755,-0.0577,-0.036,-0.0049,0.0173,0.0409,0.0506,0.0561,0.0569,0.0665,0.0726,0.0731,0.0785,0.0637,0.0638,0.0639,0.064,0,-0.0794,-0.0824,-0.0876,-0.0963,-0.1011,-0.106,-0.106,-0.1041,-0.0951,-0.084,-0.0613,-0.045,-0.0188,0.0113,0.0343,0.0483,0.0611,0.0586,0.0688,0.0788,0.08,0.0888,0.0585,0.0649,0.0648,0.0648,0.0647,0.0647,-0.0793,-0.0842,-0.0903,-0.098,-0.1033,-0.1038,-0.1004,-0.0923,-0.0795,-0.0507,-0.0439,-0.0114,0.0112,0.045,0.0572,0.0757,0.0725,0.0841,0.0873,0.087,0.0928,0.0637,0.0729,0.0729,0.0728,0.0728,0.0728,0,-0.0785,-0.0837,-0.0906,-0.0982,-0.1006,-0.1039,-0.096,-0.0826,-0.0558,-0.031,-0.004,0.0326,0.0587,0.075,0.0958,0.1064,0.1083,0.1099,0.1132,0.1178,0.0937,0.0928,0.1063,0.1063,0.1063,0.1063,0.1063,0.1063,-0.0784,-0.0844,-0.0885,-0.0913,-0.0948,-0.0894,-0.0803,-0.0528,-0.0291,0.0187,0.0483,0.0664,0.0827,0.1103,0.1307,0.1325,0.144,0.1382,0.1455,0.1304,0.1283,0.1263,0.1264,0.1468,0.1468,0.1698,0.1701,0.1702]}],[{"header":{"parameterUnit":"m.s-1","parameterCategory":2,"la1":30.2991,"la2":30.254,"lo1":-89.0895,"lo2":-89.0444,"dy":0.0017,"dx":0.0017,"nx":28,"ny":28,"refTime":"2023-09-24T21:00:00:Z","depth":"2","parameterNumber":2,"parameterNumberName":"U-component_of_CURRENTS"},"data":[0,0,0,0,0,0,0,0,0,0,0,0,0,0,0,0,0,0,0,0,0,0,0,0,0,0,0,0,0,0,0,0,0,0,0,0,0,0,0,0,0,0,0,0,0,0,0,0,0,0,0,0,0,0,0,0,0,0,-0.1807,-0.1807,0,-0.1777,-0.1776,-0.1775,-0.1728,-0.1728,-0.1727,-0.1727,-0.1635,-0.1634,-0.1632,0,0,0,0,0,0,0,0,0,0,0,0,0,-0.1801,-0.1801,-0.1807,-0.1807,-0.1807,-0.1777,-0.1776,-0.1775,-0.1728,-0.1728,-0.1727,-0.1726,-0.1636,-0.1634,-0.1631,0,0,0,0,0,0,0,0,0,0,0,0,0,-0.1787,-0.1801,-0.1807,-0.1783,-0.178,-0.1777,-0.1776,-0.1775,-0.1728,-0.1728,-0.1727,-0.1726,-0.1637,-0.1634,-0.1631,-0.1628,0,0,-0.1622,-0.1621,0,0,0,0,0,0,0,0,-0.1788,-0.1787,-0.1786,-0.1784,-0.1782,-0.1759,-0.174,-0.1724,-0.1729,-0.1744,-0.1727,-0.1726,-0.1674,-0.1668,-0.166,-0.1624,-0.162,-0.1622,-0.162,-0.1619,-0.1618,0,0,0,0,0,0,0,-0.1789,-0.1788,-0.1791,-0.1786,-0.1784,-0.1765,-0.1762,-0.1737,-0.171,-0.1743,-0.174,-0.1743,-0.1672,-0.1663,-0.1657,-0.1619,-0.1622,-0.1619,-0.1618,-0.1616,-0.1616,-0.1617,0,0,0,0,0,0,-0.1802,-0.1789,-0.1792,-0.1791,-0.1787,-0.1766,-0.1763,-0.1764,-0.1711,-0.1704,-0.1744,-0.1741,-0.1668,-0.166,-0.1654,-0.165,-0.1619,-0.1616,-0.1614,-0.1614,-0.1616,-0.1618,0,0,0,0,0,0,-0.1802,-0.1803,-0.1794,-0.1792,-0.179,-0.1768,-0.1769,-0.1764,-0.1756,-0.1713,-0.1704,-0.1742,-0.1667,-0.1658,-0.1652,-0.1645,-0.1615,-0.1612,-0.1612,-0.1614,-0.1617,-0.164,0,0,0,0,0,0,-0.1802,-0.1803,-0.1809,-0.1793,-0.1791,-0.18,-0.177,-0.1764,-0.176,-0.1756,-0.1709,-0.1699,-0.1666,-0.1657,-0.1649,-0.1641,-0.161,-0.161,-0.1613,-0.1616,-0.1637,-0.1643,-0.1648,0,0,0,0,0,-0.1802,-0.18,-0.1809,-0.181,-0.18,-0.1801,-0.1798,-0.1777,-0.1761,-0.1765,-0.1744,-0.1701,-0.1672,-0.1657,-0.1647,-0.1637,-0.1608,-0.1612,-0.1616,-0.1635,-0.1642,-0.1648,0,0,0,0,0,0,-0.1781,-0.1796,-0.1805,-0.1804,-0.1814,-0.1795,-0.1796,-0.1784,-0.177,-0.1765,-0.172,-0.1711,-0.1704,-0.1683,-0.1666,-0.1654,-0.1634,-0.1636,-0.1652,-0.1658,-0.1663,-0.167,-0.1607,0,0,0,0,0,-0.179,-0.1802,-0.1812,-0.1814,-0.1825,-0.1816,-0.1814,-0.1805,-0.1791,-0.1783,-0.1758,-0.1735,-0.1714,-0.1696,-0.1683,-0.167,-0.1665,-0.1664,-0.1669,-0.1674,-0.1677,-0.1746,-0.1757,-0.1631,-0.1631,-0.163,0,0,-0.1807,-0.1792,-0.1817,-0.1813,-0.1818,-0.1824,-0.1812,-0.1816,-0.1809,-0.1776,-0.1765,-0.1755,-0.1721,-0.1712,-0.1706,-0.1688,-0.169,-0.1679,-0.1682,-0.1683,-0.1751,-0.1763,-0.1774,-0.1633,-0.1633,-0.1632,0,0,-0.1793,-0.1816,-0.1816,-0.1822,-0.1824,-0.1833,-0.1839,-0.184,-0.1833,-0.1821,-0.1808,-0.1813,-0.176,-0.1757,-0.1738,-0.1772,-0.1727,-0.1758,-0.1773,-0.1839,-0.185,-0.1859,-0.179,-0.1793,-0.175,-0.175,-0.175,0,-0.1789,-0.1791,-0.1817,-0.1793,-0.1812,-0.1839,-0.1848,-0.1841,-0.1838,-0.1853,-0.1818,-0.1819,-0.1779,-0.1795,-0.1788,-0.178,-0.1773,-0.174,-0.1845,-0.1856,-0.1865,-0.1792,-0.1796,-0.1752,-0.1752,-0.1752,-0.1751,0,-0.1781,-0.1776,-0.1775,-0.1774,-0.1801,-0.1815,-0.1836,-0.1858,-0.1855,-0.1856,-0.1881,-0.1858,-0.1863,-0.1844,-0.1798,-0.1854,-0.1805,-0.1852,-0.1823,-0.1879,-0.1798,-0.1801,-0.1754,-0.1754,-0.1753,-0.1753,0,0,-0.1754,-0.1772,-0.1757,-0.1768,-0.1799,-0.1815,-0.1843,-0.1887,-0.1901,-0.1907,-0.1933,-0.1902,-0.1924,-0.1908,-0.1895,-0.192,-0.1926,-0.1897,-0.19,-0.1815,-0.1979,-0.1823,-0.1809,-0.2006,-0.2008,-0.2011,-0.1865,0,-0.1729,-0.169,-0.1723,-0.1735,-0.1749,-0.1813,-0.1833,-0.1877,-0.19,-0.1932,-0.1954,-0.1963,-0.1938,-0.1936,-0.1972,-0.1953,-0.195,-0.1955,-0.1949,-0.1946,-0.1794,-0.1816,-0.1696,-0.155,-0.1868,-0.1868,-0.1869,0,-0.1689,-0.1676,-0.1679,-0.1728,-0.1745,-0.1763,-0.1851,-0.1871,-0.1939,-0.1951,-0.2014,-0.2032,-0.206,-0.204,-0.2054,-0.2061,-0.2015,-0.1991,-0.1988,-0.1844,-0.18,-0.1565,-0.1544,-0.1874,-0.1874,-0.1873,-0.1873,0,-0.1641,-0.1641,-0.1651,-0.1665,-0.1726,-0.1758,-0.1805,-0.1878,-0.1902,-0.1983,-0.1991,-0.2079,-0.2058,-0.2112,-0.2016,-0.2061,-0.199,-0.2064,-0.1873,-0.1855,-0.1751,-0.1722,-0.2089,-0.2089,-0.209,-0.209,-0.209,0,-0.1589,-0.1586,-0.1624,-0.1627,-0.1652,-0.1722,-0.1762,-0.1814,-0.189,-0.1908,-0.1999,-0.1991,-0.2081,-0.2042,-0.2028,-0.1902,-0.2005,-0.1858,-0.1834,-0.1743,-0.1716,-0.2023,-0.2018,-0.2084,-0.2086,-0.2087,-0.2088,0,-0.1518,-0.1538,-0.155,-0.1609,-0.1624,-0.1641,-0.1716,-0.1743,-0.1811,-0.1839,-0.1865,-0.1909,-0.1847,-0.1856,-0.1851,-0.1838,-0.1794,-0.1717,-0.1516,-0.1474,-0.161,-0.1607,-0.1554,-0.1547,-0.1542,-0.1538,-0.1534,0,-0.1473,-0.1469,-0.1512,-0.1517,-0.154,-0.1574,-0.1596,-0.1687,-0.1713,-0.1757,-0.1752,-0.1709,-0.1639,-0.1524,-0.1491,-0.142,-0.1546,-0.1285,-0.139,-0.1585,-0.1568,-0.1574,-0.1578,-0.1218,-0.1212,-0.1207,-0.1204,0,-0.1403,-0.1418,-0.1434,-0.1434,-0.145,-0.1467,-0.1504,-0.1503,-0.1591,-0.1584,-0.1534,-0.1488,-0.1356,-0.1218,-0.1106,-0.1086,-0.1315,-0.1182,-0.1479,-0.1372,-0.1259,-0.1245,-0.1263,-0.116,-0.1165,-0.1168,-0.117,-0.1172,-0.1342,-0.1331,-0.1342,-0.1335,-0.1353,-0.1332,-0.1281,-0.1327,-0.1301,-0.1262,-0.1307,-0.119,-0.1163,-0.0923,-0.0847,-0.0809,-0.0931,-0.0974,-0.0994,-0.1019,-0.1007,-0.0891,-0.0712,-0.0714,-0.0715,-0.0717,-0.0718,0,-0.1238,-0.1237,-0.124,-0.1215,-0.118,-0.1225,-0.1192,-0.1116,-0.1012,-0.1034,-0.0979,-0.0844,-0.0727,-0.07,-0.0554,-0.0539,-0.0608,-0.0551,-0.0661,-0.07,-0.0736,-0.0718,-0.0343,-0.0343,-0.0342,-0.0341,0,0,-0.1177,-0.1134,-0.1131,-0.1028,-0.1015,-0.0893,-0.0827,-0.0749,-0.0714,-0.0606,-0.0574,-0.067,-0.0661,-0.0513,-0.0463,-0.0369,-0.0543,-0.0352,-0.0644,-0.0809,-0.0845,-0.0957,-0.0967,0,0,0,0,0]},{"header":{"parameterUnit":"m.s-1","parameterCategory":2,"la1":30.2991,"la2":30.254,"lo1":-89.0895,"lo2":-89.0444,"dy":0.0017,"dx":0.0017,"nx":28,"ny":28,"refTime":"2023-09-24T21:00:00:Z","depth":"2","parameterNumber":3,"parameterNumberName":"V-component_of_CURRENTS"},"data":[0,0,0,0,0,0,0,0,0,0,0,0,0,0,0,0,0,0,0,0,0,0,0,0,0,0,0,0,0,0,0,0,0,0,0,0,0,0,0,0,0,0,0,0,0,0,0,0,0,0,0,0,0,0,0,0,0,0,-0.0134,-0.0132,0,0.0015,0.0017,0.0018,0.008,0.008,0.008,0.008,0.023,0.0234,0.0238,0,0,0,0,0,0,0,0,0,0,0,0,0,-0.0291,-0.0289,-0.0134,-0.0132,-0.013,0.0015,0.0017,0.0019,0.0081,0.008,0.008,0.008,0.0229,0.0233,0.0238,0,0,0,0,0,0,0,0,0,0,0,0,0,-0.0192,-0.0289,-0.0134,-0.0081,-0.0074,0.0015,0.0017,0.0019,0.0081,0.008,0.008,0.008,0.0227,0.0233,0.0239,0.0284,0,0,0.0258,0.0261,0,0,0,0,0,0,0,0,-0.0198,-0.0187,-0.0091,-0.0084,-0.0077,0.003,0.0017,0.0108,0.0081,0.0021,0.008,0.008,0.0164,0.0176,0.0203,0.0291,0.0297,0.0259,0.0263,0.0265,0.0267,0,0,0,0,0,0,0,-0.0205,-0.0192,-0.0076,-0.0088,-0.008,-0.0039,-0.0026,0.0034,0.0091,0.0026,0.0031,0.0049,0.0168,0.0196,0.0207,0.0299,0.0259,0.0264,0.0268,0.0271,0.0474,0.0476,0,0,0,0,0,0,-0.0224,-0.0199,-0.0081,-0.0071,-0.0138,-0.0036,-0.0022,-0.0005,0.0091,0.0105,0.0049,0.0052,0.0186,0.0199,0.0212,0.025,0.0265,0.0271,0.0275,0.0473,0.0475,0.0477,0,0,0,0,0,0,-0.0228,-0.0215,-0.0087,-0.0131,-0.0112,-0.0034,-0.0015,-0.0002,0.0024,0.0109,0.0123,0.0061,0.0186,0.0203,0.0272,0.0256,0.0274,0.028,0.0471,0.0473,0.0476,0.0338,0,0,0,0,0,0,-0.0233,-0.0218,-0.0212,-0.0132,-0.011,-0.0044,-0.0014,0.0001,0.0037,0.0041,0.0124,0.0138,0.0187,0.0262,0.0278,0.0265,0.0285,0.0469,0.0472,0.0475,0.034,0.0335,0.0331,0,0,0,0,0,-0.024,-0.0233,-0.0213,-0.0198,-0.0105,-0.0043,-0.0029,0.0026,0.0037,0.0047,0.0111,0.0135,0.0293,0.0268,0.0287,0.0275,0.0467,0.0471,0.0475,0.0342,0.0336,0.0331,0,0,0,0,0,0,-0.0294,-0.0224,-0.02,-0.0171,-0.0116,-0.0033,-0.0014,0.002,0.0079,0.008,0.0153,0.0173,0.0234,0.0287,0.0258,0.0352,0.0386,0.0394,0.0279,0.0275,0.027,0.0242,0.029,0,0,0,0,0,-0.0304,-0.0285,-0.021,-0.0187,-0.0163,-0.0092,-0.0061,-0.0026,0.0038,0.0062,0.0124,0.0197,0.0267,0.0293,0.037,0.041,0.0458,0.0423,0.0418,0.0413,0.0409,0.0486,0.0486,0.0489,0.0489,0.0489,0,0,-0.0313,-0.0276,-0.026,-0.0197,-0.0151,-0.0124,-0.0075,-0.0035,-0.0016,0.007,0.0114,0.0189,0.0282,0.0334,0.0364,0.0368,0.0434,0.0418,0.0412,0.0411,0.049,0.0489,0.0488,0.0491,0.0491,0.0491,0,0,-0.033,-0.0295,-0.0286,-0.0253,-0.0195,-0.015,-0.0145,-0.0067,-0.0039,0.0015,0.0088,0.015,0.0251,0.0308,0.035,0.0372,0.0419,0.0401,0.0332,0.0405,0.0404,0.0404,0.0429,0.0432,0.0382,0.0381,0.0381,0,-0.0348,-0.0327,-0.0273,-0.0265,-0.0246,-0.0171,-0.0165,-0.012,-0.0031,-0.0009,0.0013,0.0169,0.0235,0.03,0.0304,0.0353,0.0394,0.0328,0.0392,0.0394,0.0396,0.0422,0.0428,0.0375,0.0376,0.0377,0.0377,0,-0.0357,-0.0348,-0.0342,-0.0311,-0.0284,-0.0265,-0.0205,-0.0173,-0.0133,-0.0084,-0.0009,0.0089,0.0176,0.0206,0.0254,0.0306,0.0328,0.0382,0.0386,0.0386,0.0415,0.0423,0.0366,0.0369,0.037,0.0372,0,0,-0.0385,-0.0355,-0.0357,-0.0359,-0.0314,-0.0291,-0.027,-0.022,-0.0203,-0.0128,-0.0099,0.0009,0.0061,0.0116,0.0189,0.0239,0.0269,0.0298,0.0305,0.0285,0.0399,0.0388,0.0396,0.0331,0.0333,0.0334,0.0398,0,-0.041,-0.0415,-0.0394,-0.0402,-0.0398,-0.0352,-0.0337,-0.029,-0.0237,-0.0187,-0.01,-0.0032,0.0027,0.0064,0.0122,0.0251,0.0291,0.0245,0.0437,0.0442,0.0402,0.0406,0.0388,0.0442,0.0406,0.0408,0.0409,0,-0.0427,-0.0434,-0.0448,-0.0452,-0.0448,-0.0444,-0.0414,-0.0392,-0.0314,-0.0275,-0.0206,-0.012,-0.0039,0.0021,0.0191,0.0159,0.0264,0.0352,0.0358,0.0404,0.0447,0.0451,0.0459,0.0422,0.0421,0.042,0.0419,0,-0.0466,-0.0473,-0.0491,-0.0491,-0.0478,-0.0484,-0.0474,-0.0417,-0.0398,-0.0326,-0.0296,-0.0185,-0.011,0.0024,0.0192,0.0199,0.038,0.0419,0.0502,0.05,0.0552,0.0553,0.0544,0.0544,0.0544,0.0544,0.0544,0,-0.0498,-0.0514,-0.0512,-0.0525,-0.0554,-0.0533,-0.0542,-0.0513,-0.0464,-0.0431,-0.0344,-0.0273,-0.0095,0.0033,0.0169,0.0344,0.0365,0.0485,0.0525,0.0502,0.0498,0.0549,0.0549,0.0546,0.0546,0.0545,0.0545,0,-0.0529,-0.0523,-0.0554,-0.0566,-0.057,-0.0593,-0.0593,-0.0589,-0.0543,-0.0494,-0.0474,-0.0327,-0.0163,-0.0005,0.0225,0.0324,0.0484,0.0548,0.0477,0.0506,0.0552,0.0545,0.0628,0.0628,0.0629,0.0629,0.0629,0,-0.054,-0.0557,-0.0593,-0.0617,-0.0627,-0.0651,-0.066,-0.0631,-0.0613,-0.0506,-0.0475,-0.0319,-0.0167,0.0107,0.0291,0.0484,0.0514,0.0572,0.059,0.0534,0.0565,0.0557,0.0549,0.0593,0.0593,0.0593,0.0593,0,-0.0577,-0.059,-0.0622,-0.0671,-0.0697,-0.0719,-0.0722,-0.0713,-0.0653,-0.0592,-0.0451,-0.0324,-0.0061,0.0167,0.0381,0.0492,0.0526,0.0576,0.0576,0.0566,0.0506,0.0534,0.0527,0.0592,0.0593,0.0593,0.0593,0.0593,-0.0607,-0.0645,-0.0685,-0.0726,-0.0756,-0.0768,-0.0767,-0.0743,-0.0697,-0.0574,-0.0443,-0.0234,-0.0032,0.029,0.0436,0.0551,0.0571,0.0614,0.0613,0.0613,0.0588,0.0532,0.0616,0.0616,0.0616,0.0616,0.0616,0,-0.0643,-0.068,-0.0733,-0.0778,-0.0801,-0.0802,-0.079,-0.076,-0.0688,-0.0546,-0.0394,-0.0152,0.0089,0.0286,0.049,0.0611,0.06,0.0607,0.059,0.059,0.0591,0.0564,0.0586,0.0586,0.0586,0.0586,0,0,-0.0664,-0.0722,-0.0747,-0.0793,-0.0814,-0.0798,-0.0777,-0.0732,-0.0629,-0.0478,-0.0318,-0.0136,0.013,0.0252,0.04,0.0514,0.0509,0.0502,0.0517,0.048,0.0479,0.0589,0.0548,0,0,0,0,0]}],[{"header":{"parameterUnit":"m.s-1","parameterCategory":2,"la1":30.2991,"la2":30.254,"lo1":-89.0895,"lo2":-89.0444,"dy":0.0017,"dx":0.0017,"nx":28,"ny":28,"refTime":"2023-09-24T21:00:00:Z","depth":"4","parameterNumber":2,"parameterNumberName":"U-component_of_CURRENTS"},"data":[0,0,0,0,0,0,0,0,0,0,0,0,0,0,0,0,0,0,0,0,0,0,0,0,0,0,0,0,0,0,0,0,0,0,0,0,0,0,0,0,0,0,0,0,0,0,0,0,0,0,0,0,0,0,0,0,0,0,-0.074,-0.074,0,-0.0786,-0.0787,-0.0787,-0.0799,-0.0798,-0.0798,-0.0798,-0.0844,-0.0846,-0.0847,0,0,0,0,0,0,0,0,0,0,0,0,0,-0.0767,-0.0766,-0.074,-0.074,-0.0741,-0.0786,-0.0787,-0.0787,-0.0799,-0.0798,-0.0798,-0.0798,-0.0844,-0.0846,-0.0847,0,0,0,0,0,0,0,0,0,0,0,0,0,-0.0778,-0.0765,-0.0739,-0.0752,-0.0754,-0.0786,-0.0787,-0.0787,-0.0799,-0.0798,-0.0798,-0.0798,-0.0843,-0.0846,-0.0848,-0.0869,0,0,-0.0855,-0.0855,0,0,0,0,0,0,0,0,-0.0777,-0.0777,-0.075,-0.0752,-0.0753,-0.0787,-0.0814,-0.0815,-0.0799,-0.0781,-0.0798,-0.0798,-0.0826,-0.0829,-0.0838,-0.0871,-0.0873,-0.0855,-0.0856,-0.0857,-0.0858,0,0,0,0,0,0,0,-0.0776,-0.0775,-0.0757,-0.0751,-0.0753,-0.0792,-0.0792,-0.0814,-0.0805,-0.0783,-0.0784,-0.079,-0.0827,-0.0836,-0.0839,-0.0874,-0.0855,-0.0857,-0.0858,-0.0859,-0.0925,-0.0926,0,0,0,0,0,0,-0.0766,-0.0774,-0.0756,-0.0759,-0.0765,-0.0792,-0.0792,-0.0776,-0.0805,-0.0809,-0.079,-0.079,-0.0833,-0.0837,-0.0841,-0.0896,-0.0857,-0.0859,-0.086,-0.0925,-0.0926,-0.0926,0,0,0,0,0,0,-0.0766,-0.0763,-0.0754,-0.077,-0.0771,-0.0791,-0.0774,-0.0777,-0.0797,-0.081,-0.0814,-0.0808,-0.0832,-0.0838,-0.0858,-0.0897,-0.086,-0.0862,-0.0925,-0.0925,-0.0926,-0.0988,0,0,0,0,0,0,-0.0766,-0.0762,-0.0757,-0.0768,-0.077,-0.0778,-0.0774,-0.0778,-0.0801,-0.0802,-0.0827,-0.083,-0.0833,-0.0854,-0.086,-0.0899,-0.0864,-0.0924,-0.0925,-0.0926,-0.0986,-0.0991,-0.0995,0,0,0,0,0,-0.0766,-0.0759,-0.0755,-0.0754,-0.0757,-0.0779,-0.0784,-0.0797,-0.0802,-0.0814,-0.0822,-0.083,-0.0864,-0.0857,-0.0863,-0.0904,-0.0924,-0.0925,-0.0926,-0.0983,-0.099,-0.0995,0,0,0,0,0,0,-0.0762,-0.076,-0.0756,-0.0745,-0.0763,-0.0781,-0.0798,-0.0807,-0.0825,-0.0829,-0.0836,-0.084,-0.087,-0.0872,-0.0863,-0.0921,-0.0896,-0.0898,-0.0937,-0.0943,-0.0948,-0.0971,-0.0866,0,0,0,0,0,-0.0759,-0.0755,-0.0761,-0.0756,-0.0766,-0.0785,-0.08,-0.081,-0.0824,-0.0833,-0.0844,-0.0859,-0.0879,-0.0897,-0.0905,-0.0945,-0.0932,-0.0972,-0.0977,-0.0982,-0.1002,-0.0998,-0.1005,-0.0929,-0.0929,-0.0929,0,0,-0.0755,-0.0756,-0.0752,-0.0757,-0.0774,-0.08,-0.0793,-0.082,-0.0851,-0.0836,-0.0876,-0.0874,-0.0888,-0.0923,-0.0938,-0.0934,-0.0993,-0.0983,-0.0987,-0.1005,-0.0999,-0.1007,-0.1014,-0.093,-0.093,-0.093,0,0,-0.0757,-0.0749,-0.0753,-0.0777,-0.0804,-0.0819,-0.0829,-0.0851,-0.0871,-0.0899,-0.0899,-0.0917,-0.0944,-0.0967,-0.0982,-0.102,-0.101,-0.1024,-0.1087,-0.1082,-0.1088,-0.1094,-0.1075,-0.1079,-0.1038,-0.1038,-0.1038,0,-0.0753,-0.0769,-0.0762,-0.0787,-0.0826,-0.083,-0.087,-0.0888,-0.0913,-0.0942,-0.0916,-0.0964,-0.0969,-0.1036,-0.1047,-0.1037,-0.1023,-0.1067,-0.109,-0.1095,-0.11,-0.108,-0.1083,-0.1041,-0.1041,-0.1041,-0.104,0,-0.0768,-0.0798,-0.0812,-0.0845,-0.0871,-0.0916,-0.094,-0.0969,-0.0986,-0.1002,-0.1051,-0.1045,-0.1077,-0.1083,-0.1082,-0.1137,-0.111,-0.1088,-0.1079,-0.1112,-0.1087,-0.109,-0.1046,-0.1045,-0.1044,-0.1043,0,0,-0.0742,-0.0809,-0.0822,-0.0869,-0.0924,-0.0949,-0.1006,-0.1067,-0.1104,-0.1118,-0.1165,-0.1201,-0.1189,-0.1205,-0.1203,-0.1211,-0.1224,-0.1176,-0.1174,-0.1166,-0.1205,-0.1116,-0.111,-0.1205,-0.1206,-0.1207,-0.117,0,-0.0777,-0.0844,-0.0871,-0.0959,-0.1012,-0.1053,-0.1101,-0.1148,-0.1171,-0.1202,-0.1223,-0.1245,-0.1239,-0.1245,-0.1259,-0.1223,-0.1235,-0.1236,-0.1169,-0.1167,-0.1091,-0.1111,-0.121,-0.1172,-0.1172,-0.1173,-0.1173,0,-0.0806,-0.0861,-0.0947,-0.1049,-0.1072,-0.1113,-0.1207,-0.1244,-0.1289,-0.1303,-0.1338,-0.1325,-0.136,-0.132,-0.1315,-0.1314,-0.1279,-0.1247,-0.1244,-0.1147,-0.1083,-0.1134,-0.1176,-0.1176,-0.1176,-0.1176,-0.1175,0,-0.0827,-0.0925,-0.1005,-0.1044,-0.1135,-0.1188,-0.1228,-0.1283,-0.1311,-0.1358,-0.1361,-0.1398,-0.1383,-0.1372,-0.1317,-0.1315,-0.1277,-0.1255,-0.1151,-0.1143,-0.1208,-0.1202,-0.1258,-0.1258,-0.1258,-0.1258,-0.1258,0,-0.0877,-0.0949,-0.1022,-0.1076,-0.115,-0.1208,-0.1272,-0.1314,-0.1355,-0.1365,-0.1403,-0.1396,-0.1391,-0.1363,-0.133,-0.1241,-0.1288,-0.117,-0.1134,-0.1231,-0.1228,-0.1208,-0.1203,-0.1256,-0.1257,-0.1257,-0.1257,0,-0.0889,-0.0948,-0.1037,-0.1139,-0.1164,-0.1208,-0.1271,-0.1299,-0.1352,-0.136,-0.1373,-0.1386,-0.1335,-0.132,-0.1269,-0.1227,-0.117,-0.1132,-0.1236,-0.1203,-0.1038,-0.1036,-0.1011,-0.1007,-0.1004,-0.1002,-0.1,0,-0.0904,-0.0955,-0.1048,-0.1075,-0.1123,-0.1188,-0.1214,-0.1282,-0.1294,-0.1335,-0.1319,-0.1301,-0.1291,-0.1146,-0.1153,-0.1089,-0.1075,-0.1058,-0.1065,-0.1049,-0.1016,-0.1019,-0.1021,-0.0996,-0.0995,-0.0994,-0.0993,0,-0.0928,-0.0954,-0.1008,-0.1048,-0.1087,-0.1116,-0.1161,-0.1155,-0.121,-0.1281,-0.1219,-0.1184,-0.1115,-0.1063,-0.1019,-0.0982,-0.1079,-0.1029,-0.1035,-0.104,-0.103,-0.1001,-0.1006,-0.0984,-0.0985,-0.0986,-0.0987,0,-0.0918,-0.0931,-0.0973,-0.0993,-0.1033,-0.1012,-0.1049,-0.1047,-0.106,-0.1111,-0.1084,-0.1066,-0.1087,-0.1005,-0.0971,-0.092,-0.0901,-0.0889,-0.0901,-0.0912,-0.0898,-0.0872,-0.0752,0,0,0,0,0,-0.0896,-0.088,-0.0908,-0.0903,-0.0935,-0.0939,-0.0992,-0.1028,-0.1081,-0.1004,-0.104,-0.0974,-0.0905,-0.0905,-0.0823,-0.092,-0.0906,-0.0827,-0.09,-0.093,-0.0941,-0.0933,0,0,0,0,0,0,-0.0867,-0.0888,-0.0878,-0.0817,-0.0789,-0.0794,-0.0813,-0.0854,-0.0818,-0.0886,-0.0839,-0.0917,-0.0848,-0.091,-0.0796,-0.0798,-0.0827,-0.0837,-0.0835,-0.0923,-0.0934,-0.0943,-0.0939,0,0,0,0,0]},{"header":{"parameterUnit":"m.s-1","parameterCategory":2,"la1":30.2991,"la2":30.254,"lo1":-89.0895,"lo2":-89.0444,"dy":0.0017,"dx":0.0017,"nx":28,"ny":28,"refTime":"2023-09-24T21:00:00:Z","depth":"4","parameterNumber":3,"parameterNumberName":"V-component_of_CURRENTS"},"data":[0,0,0,0,0,0,0,0,0,0,0,0,0,0,0,0,0,0,0,0,0,0,0,0,0,0,0,0,0,0,0,0,0,0,0,0,0,0,0,0,0,0,0,0,0,0,0,0,0,0,0,0,0,0,0,0,0,0,-0.027,-0.0269,0,-0.0226,-0.0226,-0.0225,-0.0197,-0.0197,-0.0197,-0.0197,-0.0143,-0.0142,-0.0141,0,0,0,0,0,0,0,0,0,0,0,0,0,-0.0292,-0.0292,-0.027,-0.0269,-0.0269,-0.0226,-0.0226,-0.0225,-0.0197,-0.0197,-0.0197,-0.0197,-0.0144,-0.0142,-0.0141,0,0,0,0,0,0,0,0,0,0,0,0,0,-0.0269,-0.0292,-0.027,-0.025,-0.0247,-0.0227,-0.0226,-0.0225,-0.0197,-0.0197,-0.0197,-0.0197,-0.0144,-0.0142,-0.014,-0.0134,0,0,-0.0135,-0.0134,0,0,0,0,0,0,0,0,-0.027,-0.0268,-0.0253,-0.0251,-0.0248,-0.0217,-0.0214,-0.0194,-0.0197,-0.0216,-0.0197,-0.0196,-0.0167,-0.0163,-0.0156,-0.0131,-0.0129,-0.0135,-0.0133,-0.0133,-0.0132,0,0,0,0,0,0,0,-0.0272,-0.027,-0.0252,-0.0253,-0.025,-0.023,-0.0227,-0.021,-0.0193,-0.0214,-0.0212,-0.0208,-0.0166,-0.0158,-0.0154,-0.0128,-0.0135,-0.0133,-0.0132,-0.0131,-0.0102,-0.0102,0,0,0,0,0,0,-0.028,-0.0272,-0.0254,-0.0251,-0.0259,-0.023,-0.0227,-0.0227,-0.0194,-0.0188,-0.0208,-0.0207,-0.0161,-0.0157,-0.0152,-0.0125,-0.0133,-0.0131,-0.013,-0.0102,-0.0102,-0.0103,0,0,0,0,0,0,-0.0281,-0.0279,-0.0255,-0.026,-0.0256,-0.0231,-0.0231,-0.0227,-0.0218,-0.0189,-0.0183,-0.0204,-0.0161,-0.0155,-0.0139,-0.0123,-0.013,-0.0128,-0.0101,-0.0102,-0.0102,-0.0081,0,0,0,0,0,0,-0.0282,-0.028,-0.0283,-0.0261,-0.0256,-0.025,-0.0231,-0.0226,-0.0216,-0.0213,-0.0184,-0.0179,-0.016,-0.0142,-0.0137,-0.0121,-0.0127,-0.0101,-0.0102,-0.0102,-0.0082,-0.0081,-0.0081,0,0,0,0,0,-0.0283,-0.0288,-0.0283,-0.0281,-0.0261,-0.025,-0.0246,-0.0226,-0.0216,-0.0217,-0.0195,-0.018,-0.0143,-0.0141,-0.0135,-0.0118,-0.0101,-0.0101,-0.0102,-0.0082,-0.0081,-0.0081,0,0,0,0,0,0,-0.0297,-0.0285,-0.0279,-0.028,-0.0269,-0.0245,-0.0243,-0.0229,-0.0212,-0.0211,-0.0181,-0.0174,-0.0159,-0.0148,-0.0146,-0.0116,-0.0121,-0.0121,-0.0108,-0.0107,-0.0106,-0.011,-0.0125,0,0,0,0,0,-0.0303,-0.0308,-0.029,-0.0293,-0.0288,-0.0266,-0.0259,-0.0249,-0.023,-0.0223,-0.02,-0.018,-0.0159,-0.0141,-0.0132,-0.0108,-0.0085,-0.0097,-0.0096,-0.0096,-0.0098,-0.0044,-0.0038,-0.0105,-0.0105,-0.0105,0,0,-0.0311,-0.0304,-0.0307,-0.0297,-0.0286,-0.0276,-0.0261,-0.0257,-0.0244,-0.022,-0.0199,-0.0184,-0.0158,-0.0134,-0.0125,-0.0118,-0.0066,-0.0097,-0.0096,-0.0098,-0.0044,-0.0037,-0.0031,-0.0106,-0.0106,-0.0106,0,0,-0.0323,-0.0323,-0.0325,-0.0318,-0.0306,-0.0292,-0.0292,-0.0272,-0.0259,-0.0244,-0.0219,-0.0191,-0.017,-0.0131,-0.0112,-0.0105,-0.0076,-0.0109,-0.0091,-0.0038,-0.0032,-0.0025,0.0013,0.0022,-0.0095,-0.0095,-0.0095,0,-0.0331,-0.0331,-0.0325,-0.0321,-0.0315,-0.0299,-0.0295,-0.0278,-0.0254,-0.0239,-0.0243,-0.0189,-0.0164,-0.0107,-0.0103,-0.0099,-0.0075,-0.0088,-0.0034,-0.0028,-0.0022,0.0016,0.0026,-0.0094,-0.0094,-0.0094,-0.0094,0,-0.0338,-0.0338,-0.034,-0.0329,-0.0323,-0.0323,-0.0299,-0.0289,-0.0275,-0.0253,-0.0218,-0.0182,-0.0145,-0.0128,-0.011,-0.0051,-0.0051,-0.0047,-0.0029,-0.0013,0.0024,0.0035,-0.0093,-0.0093,-0.0093,-0.0094,0,0,-0.0354,-0.0347,-0.0347,-0.0346,-0.033,-0.0327,-0.0306,-0.028,-0.0261,-0.0236,-0.0202,-0.0153,-0.0135,-0.0112,-0.0077,-0.0022,0.0048,-0.0015,-0.0013,0.0034,0.0156,0.0129,0.0138,0.0066,0.0068,0.0069,0.0167,0,-0.036,-0.036,-0.0352,-0.0351,-0.0349,-0.0331,-0.0314,-0.0289,-0.0263,-0.0229,-0.0176,-0.0143,-0.0126,-0.0104,-0.0046,0.0018,0.0075,0.002,0.0123,0.0126,0.011,0.0149,0.0075,0.0175,0.0177,0.0179,0.018,0,-0.0358,-0.0364,-0.0368,-0.0363,-0.0361,-0.0358,-0.0332,-0.0316,-0.0259,-0.0241,-0.0189,-0.0153,-0.0069,-0.0066,0.0066,0.0029,0.009,0.0141,0.0146,0.0119,0.0118,0.0154,0.0199,0.0197,0.0196,0.0195,0.0194,0,-0.0368,-0.0368,-0.0376,-0.0376,-0.0369,-0.0368,-0.0362,-0.0321,-0.0304,-0.0245,-0.0225,-0.0133,-0.0088,0.0004,0.0101,0.009,0.0238,0.0239,0.0275,0.0273,0.026,0.0252,0.0334,0.0334,0.0334,0.0334,0.0333,0,-0.0368,-0.0375,-0.0386,-0.0396,-0.041,-0.0394,-0.0393,-0.0371,-0.0328,-0.0304,-0.0236,-0.0189,-0.0069,0.0027,0.0112,0.0222,0.0251,0.0284,0.0303,0.0264,0.0256,0.0268,0.0259,0.0337,0.0336,0.0336,0.0335,0,-0.0373,-0.0376,-0.0396,-0.041,-0.0417,-0.0431,-0.0431,-0.0423,-0.0381,-0.0344,-0.0326,-0.0216,-0.0097,0.0021,0.0178,0.0229,0.0341,0.0372,0.0318,0.033,0.0338,0.0329,0.0428,0.0428,0.0428,0.0428,0.0428,0,-0.0373,-0.0385,-0.0423,-0.0447,-0.046,-0.0478,-0.0489,-0.0459,-0.0444,-0.0358,-0.0336,-0.0214,-0.0137,0.0068,0.0185,0.0347,0.036,0.0411,0.0379,0.0343,0.0351,0.0342,0.0333,0.0428,0.0428,0.0428,0.0428,0,-0.0391,-0.041,-0.0436,-0.0489,-0.0516,-0.0535,-0.0543,-0.0532,-0.0484,-0.0441,-0.0334,-0.0219,-0.0086,0.0066,0.0186,0.0302,0.0375,0.0411,0.0412,0.0383,0.0344,0.035,0.0341,0.0427,0.0427,0.0427,0.0427,0,-0.0414,-0.0444,-0.0488,-0.0525,-0.0566,-0.0584,-0.0581,-0.0549,-0.0519,-0.0416,-0.0377,-0.0224,-0.0123,0.0044,0.0162,0.0264,0.0285,0.0305,0.0311,0.0313,0.024,0.0172,0.0229,0,0,0,0,0,-0.0436,-0.0472,-0.052,-0.0566,-0.0603,-0.0616,-0.0613,-0.0596,-0.0541,-0.0474,-0.0422,-0.0295,-0.0103,-0.0005,0.0092,0.0144,0.0286,0.0259,0.0308,0.0427,0.0427,0.0358,0,0,0,0,0,0,-0.0454,-0.0507,-0.0528,-0.0588,-0.0616,-0.065,-0.0644,-0.0606,-0.0555,-0.0483,-0.0376,-0.029,-0.0101,-0.0163,0.0089,0.0124,0.0163,0.0362,0.0363,0.0427,0.0427,0.0427,0.0356,0,0,0,0,0]}]]